"2022-09-07 00:01:00",3102885,6.368,344.7216,6.537427,0.8461854,7.45,0,4.780667,350.4513,6.472807,0.6652164,5.78,0,-999,0,16.3,93.4,16.42,16.42,0.2,0,0,17.84,13.22,0.2,101.3437,3.34,3.346,3.339,100,0,0,0,219.4,16.25,16.26
"2022-09-07 00:02:00",3102886,5.4,351.2668,7.139887,0.762426,6.99,0,3.993334,345.9312,7.65427,0.921301,5.67,0,-999,0,16.3,93.5,16.43,16.43,0.2,0,0,17.82,13.25,0.2,101.3453,3.345,3.346,3.34,100,0,0,0,219.4,16.27,16.26
"2022-09-07 00:03:00",3102887,5.913333,347.1179,7.537175,0.9252794,7.32,0,4.145333,345.5669,9.792562,0.6086145,5.17,0,-999,0,16.3,93.7,16.42,16.42,0.2,0,0,17.81,13.22,0.2,101.3433,3.344,3.346,3.342,100,0,0,0,219.4,16.26,16.26
"2022-09-07 00:04:00",3102888,5.871334,354.5316,4.658699,0.7289432,7.08,0,4.192,355.3972,5.767466,0.7134349,5.32,0,-999,0,16.36,93,16.41,16.45,0.2,0,0,17.79,13.23,0.2,101.3425,3.344,3.345,3.339,100,0,0,0,219.4,16.25,16.25
"2022-09-07 00:05:00",3102889,5.160667,348.0009,4.064749,1.120425,8.59,0,4.157333,351.3448,9.532047,0.8146531,5.59,0,-999,0,16.4,93.3,16.44,16.44,0.2,0,0,17.77,13.2,0.2,101.3439,3.34,3.345,3.34,100,0,0,0,219.4,16.27,16.25
"2022-09-07 00:06:00",3102890,5.671333,347.7365,4.357034,1.0765,7.26,0,4.667333,357.0947,8.570624,1.088574,6.49,0,-999,0,16.4,92.9,16.42,16.46,0.2,0,0,17.76,13.22,0.2,101.3458,3.34,3.345,3.339,100,0,0,0,219.4,16.25,16.25
"2022-09-07 00:07:00",3102891,5.264667,347.4637,6.902176,0.6119789,6.41,0,5.141334,347.1993,7.720457,1.158993,6.72,0,-999,0,16.37,93.5,16.47,16.43,0.2,0,0,17.74,13.22,0.2,101.3509,3.34,3.345,3.338,100,0,0,0,219.4,16.26,16.26
"2022-09-07 00:08:00",3102892,4.843333,349.3972,7.296195,0.5761905,6.25,0,4.159333,344.3997,7.471932,0.8890854,5.38,0,-999,0,16.33,93.4,16.45,16.43,0.2,0,0,17.72,13.26,0.2,101.3486,3.345,3.346,3.342,100,0,0,0,219.4,16.26,16.26
"2022-09-07 00:09:00",3102893,4.677333,352.5788,8.460032,0.54785,5.5,0,3.644,348.149,6.511806,0.6745745,4.59,0,-999,0,16.3,93.4,16.42,16.42,0.2,0,0,17.71,13.23,0.2,101.3472,3.344,3.345,3.339,100,0,0,0,219.4,16.27,16.26
"2022-09-07 00:10:00",3102894,4.732,348.0577,6.565237,0.4058605,5.48,0,3.966,348.0638,7.636133,0.6086248,5.05,0,-999,0,16.31,93.6,16.43,16.42,0.2,0,0,17.69,13.23,0.2,101.3489,3.343,3.344,3.338,100,0,0,0,219.4,16.27,16.26
"2022-09-07 00:11:00",3102895,4.972,341.2664,4.478343,0.6615961,5.92,0,2.768667,346.9338,8.077559,0.4254232,3.91,0,-999,0,16.3,93.4,16.4,16.41,0.2,0,0,17.67,13.22,0.2,101.3478,3.342,3.344,3.338,100,0,0,0,219.4,16.25,16.26
"2022-09-07 00:12:00",3102896,4.694,346.0677,6.146424,0.5904664,6.22,0,3.432,344.6647,10.80707,0.8413022,5.1,0,-999,0,16.3,93.2,16.4,16.41,0.2,0,0,17.66,13.22,0.2,101.3521,3.342,3.345,3.338,100,0,0,0,219.4,16.25,16.26
"2022-09-07 00:13:00",3102897,5.472,346.7335,3.640958,0.5429697,6.51,0,3.177333,347.5836,12.51205,0.8027326,4.3,0,-999,0,16.3,93.3,16.4,16.42,0.2,0,0,17.65,13.24,0.2,101.3542,3.344,3.345,3.339,100,0,0,0,219.4,16.25,16.26
"2022-09-07 00:14:00",3102898,4.934,341.9225,9.704838,0.5262547,5.77,0,3.175334,339.7915,7.34166,0.7453757,5.04,0,-999,0,16.33,93.1,16.4,16.43,0.2,0,0,17.64,13.21,0.2,101.3555,3.339,3.343,3.339,100,0,0,0,219.4,16.25,16.26
"2022-09-07 00:15:00",3102899,4.185334,340.0682,8.261836,0.8648843,5.39,0,3.259333,345.0693,8.943405,0.5000462,4.12,0,-999,0,16.36,93.1,16.4,16.43,0.2,0,0,17.63,13.22,0.2,101.3542,3.34,3.344,3.338,100,0,0,0,219.4,16.25,16.25
"2022-09-07 00:16:00",3102900,3.68,343.2286,9.391124,0.7739509,5.07,0,2.171333,337.4677,9.374713,0.3770918,2.93,0,-999,0,16.33,93.3,16.42,16.43,0.2,0,0,17.62,13.22,0.2,101.3609,3.34,3.345,3.34,100,0,0,0,219.4,16.26,16.25
"2022-09-07 00:17:00",3102901,3.404666,338.5241,10.98809,0.6994747,5.21,0,2.596,331.0917,8.946414,0.5746744,3.95,0,-999,0,16.3,93.8,16.46,16.42,0.2,0,0,17.61,13.23,0.2,101.3573,3.342,3.342,3.338,100,0,0,0,219.4,16.27,16.25
"2022-09-07 00:18:00",3102902,4.007333,347.6714,4.99963,0.7752545,5.84,0,3.5,344.2095,8.506045,0.5614623,4.74,0,-999,0,16.3,94.2,16.46,16.4,0.2,0,0,17.59,13.23,0.2,101.358,3.342,3.344,3.338,100,0,0,0,219.4,16.27,16.26
"2022-09-07 00:19:00",3102903,5.156,341.0836,6.857594,0.4217392,5.79,0,3.064667,343.5512,9.271892,0.68463,4.1,0,-999,0,16.3,93.7,16.42,16.4,0.2,0,0,17.57,13.23,0.2,101.3535,3.339,3.343,3.338,100,0,0,0,219.4,16.27,16.26
"2022-09-07 00:20:00",3102904,4.198667,346.8624,4.451624,0.7881613,5.19,0,2.96,352.3927,7.306262,0.593588,4.01,0,-999,0,16.33,93,16.41,16.42,0.2,0,0,17.56,13.26,0.2,101.3523,3.343,3.345,3.34,100,0,0,0,219.4,16.29,16.26
"2022-09-07 00:21:00",3102905,3.349333,343.0009,6.37177,0.3016061,3.81,0,2.244667,342.7914,5.625298,0.4682573,3.26,0,-999,0,16.39,93.3,16.45,16.43,0.2,0,0,17.56,13.22,0.2,101.3536,3.338,3.344,3.338,100,0,0,0,219.4,16.3,16.26
"2022-09-07 00:22:00",3102906,2.917333,335.3914,8.842815,0.3857541,3.5,0,2.188,338.39,6.747859,0.3461059,3.06,0,-999,0,16.3,94,16.46,16.42,0.2,0,0.254,17.55,13.24,0.2,101.3522,3.342,3.343,3.338,100,0,0,0,219.4,16.32,16.27
"2022-09-07 00:23:00",3102907,3.738667,337.2144,10.25629,1.01685,5.25,0,3.274,344.3314,19.61311,0.6698139,4.58,0,-999,0,16.3,94.6,16.45,16.39,0.2,0,0,17.54,13.21,0.2,101.3561,3.337,3.34,3.337,100,0,0,0,219.4,16.34,16.27
"2022-09-07 00:24:00",3102908,3.621334,339.1998,4.322853,0.3358743,4.11,0,2.714667,339.6532,11.03166,0.3749999,3.24,0,-999,0,16.3,93.9,16.45,16.41,0.2,0,0,17.53,13.23,0.2,101.3525,3.337,3.342,3.337,100,0,0,0,219.4,16.38,16.28
"2022-09-07 00:25:00",3102909,2.665333,343.079,5.921741,0.4739601,3.34,0,2.390667,338.1768,9.699555,0.292631,3.01,0,-999,0,16.3,94.4,16.48,16.41,0.2,0,0,17.51,13.24,0.2,101.355,3.338,3.342,3.337,100,0,0.04,0.04,219.5,16.39,16.3
"2022-09-07 00:26:00",3102910,2.359333,336.2811,13.23226,0.2869022,2.93,0,2.472667,341.2215,10.70828,0.9279617,3.9,0,-999,0,16.3,94.9,16.47,16.39,0.2,0,0,17.51,13.26,0.2,101.3594,3.344,3.344,3.337,100,0,0,0,219.5,16.4,16.31
"2022-09-07 00:27:00",3102911,3.103333,338.1969,7.941994,0.3529432,3.84,0,2.208667,343.0768,9.771116,0.278397,2.73,0,-999,0,16.3,94.9,16.46,16.38,0.2,0,0,17.51,13.23,0.2,101.3652,3.343,3.343,3.338,100,0,0.03,0.023,219.5,16.42,16.33
"2022-09-07 00:28:00",3102912,2.432,337.6466,9.061506,0.6737675,3.88,0,1.366,342.7939,7.964892,0.2590443,1.93,0,-999,0,16.3,94.5,16.45,16.4,0.2,0,0,17.49,13.24,0.2,101.3715,3.34,3.342,3.336,100,0,0.02,0.023,219.5,16.44,16.34
"2022-09-07 00:29:00",3102913,2.849334,343.9935,11.89366,0.3951281,3.45,0,1.843333,344.9868,8.236537,0.3520922,2.39,0,-999,0,16.3,94.2,16.46,16.42,0.2,0,0,17.49,13.25,0.2,101.3708,3.342,3.342,3.338,100,0,0.02,0.024,219.5,16.46,16.37
"2022-09-07 00:30:00",3102914,1.906,0.2580062,19.52466,0.5757522,2.77,0,1.696667,13.06039,17.8043,0.3317966,2.29,0,-999,0,16.33,94.2,16.47,16.42,0.2,0,0,17.47,13.24,0.2,101.3761,3.339,3.343,3.337,100,0,0.03,0.026,219.6,16.49,16.4
"2022-09-07 00:31:00",3102915,1.132667,354.0265,17.03028,0.2783635,1.66,0,1.168,15.16434,19.71888,0.1823988,1.41,0,-999,0,16.39,94.4,16.47,16.43,0.2,0,0,17.46,13.23,0.2,101.3818,3.34,3.342,3.337,100,0,0,0,219.6,16.5,16.41
"2022-09-07 00:32:00",3102916,1.05,37.09314,18.49304,0.2486229,1.55,0,1.083333,29.23824,24.2742,0.2609896,1.43,0,-999,0,16.4,94.2,16.47,16.43,0.2,0,0,17.46,13.25,0.2,101.3824,3.342,3.342,3.339,100,0,0.02,0.024,219.6,16.52,16.42
"2022-09-07 00:33:00",3102917,1.458667,35.01128,7.384599,0.1863283,1.82,0,1.054667,49.29198,11.9632,0.1894155,1.45,0,-999,0,16.4,94.1,16.47,16.43,0.2,0,0,17.46,13.24,0.2,101.3867,3.342,3.342,3.338,100,0,0.03,0.023,219.6,16.53,16.44
"2022-09-07 00:34:00",3102918,1.319333,32.34496,6.188125,0.2176684,1.69,0,1.306667,28.83029,11.87554,0.1924116,1.65,0,-999,0,16.4,93.7,16.47,16.44,0.2,0,0,17.46,13.25,0.2,101.3879,3.342,3.342,3.337,100,0,0.02,0.025,219.6,16.54,16.47
"2022-09-07 00:35:00",3102919,0.908,48.16208,28.06562,0.2463385,1.4,0,0.9539999,20.84481,11.66046,0.1918263,1.33,0,-999,0,16.4,94.1,16.48,16.46,0.2,0,0,17.45,13.24,0.2,101.3838,3.34,3.342,3.337,100,0,0.02,0.023,219.7,16.55,16.49
"2022-09-07 00:36:00",3102920,1.484667,44.23289,9.293779,0.3053275,2.13,0,0.8113334,33.30246,13.81024,0.1495712,1.18,0,-999,0,16.4,94,16.48,16.45,0.2,0,0,17.44,13.24,0.2,101.3886,3.339,3.34,3.336,100,0,0,0,219.7,16.56,16.51
"2022-09-07 00:37:00",3102921,1.844,18.34861,8.868099,0.392017,2.56,0,1.615333,7.754714,9.183804,0.3702948,2.17,0,-999,0,16.4,93.8,16.49,16.47,0.2,0,0,17.44,13.25,0.2,101.3852,3.34,3.34,3.336,100,0,0.03,0.031,219.7,16.58,16.52
"2022-09-07 00:38:00",3102922,2.838,0.393087,6.966221,0.2855684,3.29,0,2.118,3.73188,10.10974,0.1847593,2.48,0,-999,0,16.4,94,16.5,16.48,0.2,0,0,17.44,13.22,0.2,101.3811,3.335,3.338,3.335,100,0,0,0,219.7,16.59,16.53
"2022-09-07 00:39:00",3102923,2.666,15.13468,5.617216,0.3632776,3.13,0,2.032667,4.870593,6.777509,0.3104291,2.59,0,-999,0,16.42,93.5,16.48,16.5,0.2,0,0,17.44,13.24,0.2,101.3833,3.337,3.339,3.335,100,0,0.03,0.022,219.7,16.6,16.54
"2022-09-07 00:40:00",3102924,2.608667,5.548408,5.954212,0.3462729,3.11,0,2.529334,9.533673,4.377574,0.3426459,3.03,0,-999,0,16.48,93.7,16.51,16.51,0.2,0,0,17.42,13.24,0.2,101.3791,3.337,3.34,3.335,100,0,0,0,219.7,16.6,16.55
"2022-09-07 00:41:00",3102925,3.151333,10.53215,4.786038,0.5956157,4.37,0,2.420667,3.534348,3.997231,0.3513302,3.36,0,-999,0,16.45,94,16.52,16.5,0.2,0,0,17.42,13.25,0.2,101.3783,3.338,3.34,3.337,100,0,0.02,0.021,219.7,16.61,16.57
"2022-09-07 00:42:00",3102926,3.48,12.85086,5.646245,0.2334952,3.88,0,2.760667,3.600528,4.190863,0.4412024,3.62,0,-999,0,16.49,93.7,16.51,16.51,0.2,0,0,17.41,13.24,0.2,101.3757,3.338,3.34,3.336,100,0,0.02,0.022,219.8,16.61,16.58
"2022-09-07 00:43:00",3102927,3.884,9.334171,4.598576,0.3699333,4.53,0,2.999333,4.664351,4.220336,0.4260745,3.61,0,-999,0,16.49,93.9,16.54,16.5,0.2,0,0,17.41,13.23,0.2,101.3676,3.335,3.339,3.335,100,0,0,0,219.8,16.62,16.59
"2022-09-07 00:44:00",3102928,4.621333,1.866059,3.480269,0.4079194,5.09,0,3.566,354.5325,5.401784,0.5664016,4.84,0,-999,0,16.47,94.3,16.54,16.5,0.2,0,0,17.41,13.25,0.2,101.3586,3.337,3.34,3.335,100,0,0,0,219.8,16.62,16.6
"2022-09-07 00:45:00",3102929,4.837334,6.671469,5.580472,0.6182175,6.02,0,3.844667,357.9327,6.068813,0.5475991,4.99,0,-999,0,16.41,94.5,16.54,16.49,0.2,0,0,17.41,13.24,0.2,101.3564,3.336,3.338,3.334,100,0,0.02,0.02,219.8,16.63,16.6
"2022-09-07 00:46:00",3102930,5.16,4.671574,4.945123,0.5296413,6.25,0,3.922666,0.940062,6.253607,0.5846648,4.76,0,-999,0,16.44,94.1,16.53,16.5,0.2,0,0,17.41,13.23,0.2,101.3541,3.334,3.337,3.333,100,0,0,0,219.8,16.63,16.61
"2022-09-07 00:47:00",3102931,5.405334,11.25458,8.954261,0.9640806,7.56,0,3.607334,2.953638,15.00813,0.4428915,4.48,0,-999,0,16.49,94,16.51,16.5,0.2,0,0,17.41,13.23,0.2,101.359,3.334,3.338,3.333,100,0,0,0,219.8,16.63,16.61
"2022-09-07 00:48:00",3102932,5.108666,1.670864,4.4799,0.7049431,6.34,0,3.999333,3.912157,8.892743,0.5193388,4.91,0,-999,0,16.5,93.1,16.49,16.55,0.2,0,0,17.41,13.23,0.2,101.3559,3.334,3.336,3.333,100,0,0,0,219.8,16.63,16.62
"2022-09-07 00:49:00",3102933,4.786,5.470004,5.338927,0.5194972,5.51,0,3.529333,1.533588,4.543377,0.7368352,5.22,0,-999,0,16.5,93.3,16.53,16.56,0.2,0,0,17.41,13.23,0.2,101.3621,3.333,3.337,3.333,100,0,0,0,219.8,16.62,16.62
"2022-09-07 00:50:00",3102934,5.476,7.338656,5.271616,0.8691207,6.63,0,4.205333,11.26523,6.879066,0.8271869,5.54,0,-999,0,16.5,93.7,16.54,16.56,0.2,0,0,17.41,13.24,0.2,101.3636,3.335,3.337,3.333,100,0,0,0,219.8,16.63,16.62
"2022-09-07 00:51:00",3102935,4.524,1.529071,4.909227,0.6615316,5.63,0,3.528,1.941003,7.789793,0.5491229,4.43,0,-999,0,16.51,93.2,16.54,16.57,0.2,0,0,17.41,13.23,0.2,101.3676,3.336,3.336,3.333,100,0,0,0,219.8,16.63,16.62
"2022-09-07 00:52:00",3102936,3.726001,359.791,8.271591,0.4757282,4.59,0,2.476,349.4268,7.778765,0.587308,3.32,0,-999,0,16.52,93.7,16.56,16.56,0.2,0,0,17.41,13.23,0.2,101.3719,3.335,3.336,3.333,100,0,0,0,219.8,16.61,16.62
"2022-09-07 00:53:00",3102937,2.596667,356.3782,14.17885,0.9399053,4.35,0,1.557333,341.8975,17.64446,0.3461111,2.03,0,-999,0,16.5,93.7,16.54,16.57,0.2,0,0,17.41,13.23,0.2,101.3839,3.334,3.336,3.333,100,0,0,0,219.8,16.62,16.62
"2022-09-07 00:54:00",3102938,1.152667,346.7875,29.37885,0.4848019,2.01,0,0.8086665,266.6189,67.96542,0.4401344,1.98,0,-999,0,16.5,94.2,16.55,16.56,0.2,0,0.254,17.41,13.24,0.2,101.3928,3.336,3.336,3.333,100,0,0,0,219.8,16.62,16.62
"2022-09-07 00:55:00",3102939,1.360667,250.3317,69.16132,0.6388789,2.42,0,0.9160001,242.0276,24.81595,0.238266,1.51,0,-999,0,16.5,94,16.55,16.55,0.2,0,0,17.39,13.25,0.2,101.3948,3.336,3.337,3.334,100,0,0,0,219.8,16.64,16.62
"2022-09-07 00:56:00",3102940,0.9473333,274.7745,15.91097,0.1822624,1.27,0,1.154667,245.737,27.61956,0.3101799,1.55,0,-999,0,16.5,93.7,16.55,16.57,0.2,0,0,17.39,13.23,0.2,101.4045,3.333,3.336,3.333,100,0,0,0,219.8,16.63,16.62
"2022-09-07 00:57:00",3102941,1.022,270.3195,26.15528,0.3378402,1.56,0,1.191333,224.5762,12.1427,0.2284693,1.5,0,-999,0,16.5,93.9,16.56,16.57,0.2,0,0,17.39,13.25,0.2,101.4134,3.334,3.337,3.333,100,0,0,0,219.8,16.64,16.62
"2022-09-07 00:58:00",3102942,2.792667,207.1923,17.32024,0.7733001,4.03,0,2.224667,203.2721,12.01891,0.5192285,3.19,0,-999,0,16.5,94,16.56,16.57,0.2,0,0,17.39,13.26,0.2,101.4249,3.336,3.337,3.333,100,0,0,0,219.8,16.64,16.62
"2022-09-07 00:59:00",3102943,3.847333,216.9448,6.020175,0.2786507,4.34,0,3.335334,217.2658,4.477224,0.442491,3.9,0,-999,0,16.49,94,16.61,16.58,0.2,0,0,17.39,13.24,0.2,101.422,3.333,3.336,3.333,100,0,0,0,219.8,16.66,16.63
"2022-09-07 01:00:00",3102944,3.342667,190.934,2.976327,0.2178521,3.67,0,2.544667,197.3901,7.772116,0.350958,3.38,0,-999,0,16.5,94.1,16.63,16.56,0.2,0,0,17.39,13.24,0.2,101.4243,3.333,3.335,3.331,100,0,0.03,0.031,219.8,16.67,16.63
"2022-09-07 01:01:00",3102945,3.391333,204.3548,18.77801,0.4465403,4.28,0,2.826666,208.8418,22.86434,0.6243787,4,0,-999,0,16.5,94.4,16.62,16.56,0.2,0,0,17.39,13.23,0.2,101.4285,3.333,3.336,3.331,100,0,0,0,219.8,16.69,16.64
"2022-09-07 01:02:00",3102946,3.685333,206.7153,13.47812,0.2878394,4.16,0,2.968667,217.6094,10.25933,0.5198317,4.01,0,-999,0,16.5,94.6,16.62,16.56,0.2,0,0,17.39,13.23,0.2,101.4268,3.333,3.334,3.331,100,0,0,0,219.8,16.73,16.64
"2022-09-07 01:03:00",3102947,3.486,218.9324,4.821412,0.3942047,4.14,0,2.67,217.796,6.443855,0.499186,3.42,0,-999,0,16.5,94.9,16.61,16.53,0.2,0,0.254,17.39,13.24,0.2,101.4324,3.333,3.334,3.331,100,0,0,0,219.8,16.8,16.65
"2022-09-07 01:04:00",3102948,3.715333,224.3946,6.118103,0.2825802,4.33,0,2.757333,222.9355,5.565568,0.2476413,3.31,0,-999,0,16.4,95.1,16.57,16.51,0.2,0,0,17.39,13.23,0.2,101.4323,3.333,3.334,3.329,100,0,0.02,0.021,219.8,16.89,16.66
"2022-09-07 01:05:00",3102949,3.892667,230.0672,2.931531,0.3528828,4.81,0,3.15,225.733,3.335706,0.330676,3.85,0,-999,0,16.4,95.2,16.54,16.49,0.2,0,0,17.39,13.22,0.2,101.4323,3.329,3.333,3.329,100,0.119,0.03,0.022,219.8,17.01,16.67
"2022-09-07 01:06:00",3102950,3.211333,226.2649,4.403287,0.2012583,3.59,0,2.320667,220.9284,4.520955,0.2833012,2.76,0,-999,0,16.4,95.3,16.54,16.47,0.2,0,0.508,17.39,13.22,0.2,101.4286,3.329,3.333,3.328,100,0.173,0.16,0.021,219.9,17.19,16.7
"2022-09-07 01:07:00",3102951,2.915333,227.4013,4.908105,0.3663672,3.73,0,2.428667,222.7351,4.581465,0.1654435,2.79,0,-999,0,16.38,96.2,16.54,16.44,0.2,0,0,17.39,13.22,0.2,101.4308,3.329,3.333,3.328,100,0.181,0.16,0.032,219.9,17.35,16.74
"2022-09-07 01:08:00",3102952,3.229333,218.7351,3.212609,0.3427626,3.86,0,2.482667,217.3994,3.928209,0.3867207,3.22,0,-999,0,16.31,96.3,16.49,16.42,0.2,0,0.254,17.39,13.23,0.2,101.4255,3.327,3.333,3.327,100,0.215,0.2,0.08,220,17.57,16.81
"2022-09-07 01:09:00",3102953,3.090667,227.9348,3.17117,0.1410185,3.4,0,2.38,231.5323,3.116374,0.2091252,2.71,0,-999,0,16.3,96.6,16.48,16.41,0.2,0,0.254,17.4,13.22,0.2,101.4211,3.328,3.332,3.327,100,0.221,0.21,0.073,220.1,17.8,16.9
"2022-09-07 01:10:00",3102954,1.906,244.3207,13.54786,0.4616607,2.87,0,1.256,236.7838,9.470323,0.5466723,2.12,0,-999,0,16.3,96.6,16.48,16.4,0.2,0,0.254,17.4,13.22,0.2,101.4173,3.328,3.333,3.328,100,0.286,0.27,0.153,220.2,18.09,17.03
"2022-09-07 01:11:00",3102955,1.056,272.951,36.72191,0.4484759,2.2,0,0.6993334,76.7435,37.04168,0.3853737,1.46,0,-999,0,16.3,96.6,16.45,16.37,0.2,0,0.254,17.4,13.24,0.2,101.4161,3.328,3.332,3.328,100,0.132,0.17,0.164,220.4,18.2,17.2
"2022-09-07 01:12:00",3102956,1.426667,335.8001,33.84342,0.6206735,3.38,0,0.8833333,15.4712,43.31402,0.5272655,1.87,0,-999,0,16.3,95.8,16.41,16.36,0.2,0,0,17.4,13.25,0.2,101.4117,3.329,3.331,3.329,100,0.124,0.11,0.19,220.6,18.33,17.39
"2022-09-07 01:13:00",3102957,4.288667,333.7776,14.97969,0.7087724,5.17,0,3.631333,355.3461,10.50555,0.8092949,5.27,0,-999,0,16.38,94.3,16.4,16.41,0.2,0,0.254,17.41,13.25,0.2,101.4073,3.328,3.331,3.327,100,0.161,0.15,0.214,220.8,18.49,17.6
"2022-09-07 01:14:00",3102958,4.01,315.9575,10.06543,0.4347717,5.04,0,3.872667,321.7882,8.436404,0.7152011,5.99,0,-999,0,16.48,91.2,16.37,16.52,0.2,0,0.254,17.4,13.24,0.2,101.3977,3.328,3.329,3.326,100,0,0.1,0.246,221,18.58,17.85
"2022-09-07 01:15:00",3102959,4.312,332.8445,9.509401,0.476462,4.71,0,3.871333,333.9395,9.326121,0.4515287,4.64,0,-999,0,16.58,91.9,16.44,16.59,0.2,0,0,17.39,13.24,0.2,101.3971,3.325,3.33,3.325,100,0,0,0.267,221.3,18.63,18.11
"2022-09-07 01:16:00",3102960,3.488,328.4001,2.471135,0.2867333,3.96,0,2.616,325.9904,5.83723,0.4951202,3.32,0,-999,0,16.5,93.7,16.48,16.54,0.2,0,0,17.39,13.23,0.2,101.3923,3.327,3.328,3.325,100,0,0.01,0.104,221.4,18.63,18.22
"2022-09-07 01:17:00",3102961,4.111334,327.8002,2.560925,0.2874455,4.65,0,2.95,328.3316,4.268311,0.3284306,3.4,0,-999,0,16.43,94.4,16.48,16.5,0.2,0,0,17.39,13.22,0.2,101.3927,3.326,3.328,3.325,100,0,0.12,0.117,221.5,18.64,18.35
"2022-09-07 01:18:00",3102962,4.42,325.8655,2.679244,0.3730594,5.1,0,3.056667,326.3304,5.649229,0.8002138,4.65,0,-999,0,16.4,94.3,16.48,16.46,0.2,0,0,17.39,13.22,0.2,101.3894,3.325,3.329,3.324,100,0,0.17,0.175,221.7,18.64,18.51
"2022-09-07 01:19:00",3102963,4.647333,326.8601,5.907018,0.55313,5.77,0,3.623333,320.5364,4.714939,0.3049736,4.51,0,-999,0,16.47,93,16.43,16.51,0.2,0,0,17.4,13.23,0.2,101.3874,3.326,3.328,3.325,100,0,0.08,0.075,221.8,18.66,18.59
"2022-09-07 01:20:00",3102964,4.108667,330.9317,4.311612,0.3528525,4.66,0,2.945333,331.59,6.657674,0.3119159,3.75,0,-999,0,16.52,92.1,16.46,16.56,0.2,0,0,17.39,13.23,0.2,101.391,3.326,3.328,3.325,100,0,0.02,0.027,221.8,18.66,18.62
"2022-09-07 01:21:00",3102965,3.683333,317.1987,4.620944,0.4224479,4.34,0,2.796667,320.6295,8.340985,0.5363042,3.8,0,-999,0,16.51,92.8,16.49,16.56,0.2,0,0,17.39,13.23,0.2,101.3883,3.325,3.327,3.324,100,0,0,0,221.8,18.65,18.63
"2022-09-07 01:22:00",3102966,4.300667,318.6016,3.516971,0.4260746,5.08,0,3.003333,320.0717,6.986305,0.4133387,3.93,0,-999,0,16.5,93.6,16.51,16.53,0.2,0,0,17.39,13.24,0.2,101.388,3.325,3.329,3.325,100,0,0.02,0.021,221.8,18.65,18.64
"2022-09-07 01:23:00",3102967,3.946,320.6698,3.959771,0.2085762,4.38,0,3.028666,317.009,4.974696,0.3599975,3.88,0,-999,0,16.5,93.3,16.52,16.53,0.2,0,0,17.39,13.22,0.2,101.3869,3.317,3.324,3.317,100,0,0,0,221.8,18.66,18.65
"2022-09-07 01:24:00",3102968,3.700667,324.0652,3.766933,0.4317942,4.23,0,2.674666,323.6667,5.158746,0.357787,3.36,0,-999,0,16.5,93,16.53,16.53,0.2,0,0,17.39,13.22,0.2,101.3871,3.316,3.32,3.316,100,0,0,0,221.8,18.66,18.65
"2022-09-07 01:25:00",3102969,3.61,331.9375,8.233616,0.3488267,4.25,0,2.965333,324.5957,7.571522,0.5060548,3.77,0,-999,0,16.5,93.3,16.55,16.52,0.2,0,0,17.39,13.23,0.2,101.3888,3.32,3.32,3.317,100,0,0,0,221.8,18.66,18.65
"2022-09-07 01:26:00",3102970,3.692667,334.1986,5.69347,0.3927249,4.5,0,2.456,334.5916,7.679253,0.5922027,3.65,0,-999,0,16.5,93.5,16.55,16.51,0.2,0,0,17.39,13.22,0.2,101.3817,3.318,3.321,3.317,100,0,0.02,0.021,221.8,18.67,18.66
"2022-09-07 01:27:00",3102971,3.415334,332.7354,6.634936,0.2914988,3.91,0,2.212667,333.8712,7.83379,0.4668971,3.64,0,-999,0,16.5,93.5,16.54,16.51,0.2,0,0,17.39,13.22,0.2,101.3814,3.317,3.319,3.316,100,0,0,0,221.8,18.67,18.66
"2022-09-07 01:28:00",3102972,3.224667,330.4536,6.766384,0.3404089,3.88,0,2.384666,331.1599,8.434906,0.4480754,3.08,0,-999,0,16.45,93.8,16.55,16.51,0.2,0,0,17.39,13.22,0.2,101.38,3.317,3.319,3.315,100,0,0,0,221.8,18.67,18.66
"2022-09-07 01:29:00",3102973,3.985333,331.9295,6.605468,0.3591075,4.63,0,2.976666,335.3553,7.098839,0.4798147,3.73,0,-999,0,16.4,94.1,16.53,16.5,0.2,0,0,17.39,13.24,0.2,101.3791,3.318,3.319,3.316,100,0,0,0,221.8,18.67,18.66
"2022-09-07 01:30:00",3102974,3.979333,335.864,7.444716,0.4432827,4.82,0,2.459333,336.9674,7.44771,0.4181143,3.36,0,-999,0,16.4,94.1,16.52,16.47,0.2,0,0,17.38,13.25,0.2,101.3697,3.317,3.32,3.317,100,0,0,0,221.8,18.67,18.67
"2022-09-07 01:31:00",3102975,3.940667,329.4023,4.570725,0.5292443,4.71,0,2.966667,325.5359,5.497805,0.5283391,3.82,0,-999,0,16.4,93.7,16.49,16.48,0.2,0,0,17.37,13.22,0.2,101.3668,3.316,3.32,3.315,100,0,0,0,221.8,18.67,18.67
"2022-09-07 01:32:00",3102976,4.222667,331.066,4.696092,0.3244167,4.68,0,2.722667,330.1877,9.63313,0.3295749,3.23,0,-999,0,16.4,93.8,16.5,16.49,0.2,0,0,17.36,13.21,0.2,101.3617,3.315,3.318,3.315,100,0,0,0,221.8,18.68,18.67
"2022-09-07 01:33:00",3102977,4.07,332.4631,8.733258,0.4748754,4.84,0,3.102,334.841,10.31856,0.483366,3.92,0,-999,0,16.41,93.9,16.5,16.49,0.2,0,0,17.36,13.21,0.2,101.3625,3.317,3.317,3.315,100,0,0,0,221.8,18.67,18.67
"2022-09-07 01:34:00",3102978,3.490666,332.9907,6.698983,0.4750785,4.13,0,3.319333,330.8606,5.312971,0.3777736,3.82,0,-999,0,16.4,94,16.49,16.46,0.2,0,0,17.36,13.25,0.2,101.3621,3.319,3.32,3.316,100,0,0,0,221.8,18.68,18.67
"2022-09-07 01:35:00",3102979,3.333333,335.1099,9.101393,0.4467015,4.21,0,2.885333,332.8704,8.8004,0.4769887,3.7,0,-999,0,16.4,94.1,16.49,16.45,0.2,0,0,17.36,13.23,0.2,101.3638,3.317,3.319,3.316,100,0,0,0,221.8,18.67,18.67
"2022-09-07 01:36:00",3102980,3.689334,332.6669,5.146081,0.4432525,4.25,0,2.914,337.6948,9.630117,0.4497525,3.67,0,-999,0,16.4,93.9,16.49,16.44,0.2,0,0,17.36,13.23,0.2,101.363,3.318,3.32,3.316,100,0,0,0,221.8,18.67,18.67
"2022-09-07 01:37:00",3102981,3.719333,333.5299,7.695293,0.7825553,5.08,0,2.945334,333.0041,5.952456,0.6250746,4.2,0,-999,0,16.4,93.7,16.49,16.47,0.2,0,0,17.36,13.22,0.2,101.3616,3.316,3.32,3.315,100,0,0,0,221.8,18.67,18.67
"2022-09-07 01:38:00",3102982,3.514,341.8709,8.664766,0.5221724,4.51,0,2.895333,332.7458,9.781165,0.553966,4.31,0,-999,0,16.4,93.6,16.49,16.48,0.2,0,0,17.36,13.2,0.2,101.3605,3.313,3.317,3.313,100,0,0,0,221.8,18.67,18.67
"2022-09-07 01:39:00",3102983,3.485333,343.6011,5.758007,0.3933424,4.21,0,2.553334,345.399,6.072064,0.348954,3.22,0,-999,0,16.4,93.9,16.5,16.45,0.2,0,0,17.36,13.22,0.2,101.3523,3.317,3.317,3.312,100,0,0,0,221.8,18.68,18.67
"2022-09-07 01:40:00",3102984,3.483333,342.6739,6.795197,0.4337997,4.24,0,2.525333,347.3293,7.369556,0.5249745,3.63,0,-999,0,16.4,94,16.5,16.44,0.2,0,0,17.36,13.25,0.2,101.3482,3.316,3.319,3.316,100,0,0,0,221.8,18.67,18.67
"2022-09-07 01:41:00",3102985,3.842667,343.287,7.475924,0.3384371,4.36,0,2.454667,346.623,8.448932,0.4641389,3.43,0,-999,0,16.4,94.2,16.47,16.42,0.2,0,0,17.35,13.23,0.2,101.3474,3.318,3.319,3.315,100,0,0,0,221.8,18.67,18.67
"2022-09-07 01:42:00",3102986,3.544667,343.2107,7.06559,0.4297576,4.48,0,2.829333,340.4007,3.772504,0.4064721,3.55,0,-999,0,16.36,94.1,16.45,16.4,0.2,0,0,17.34,13.24,0.2,101.3453,3.316,3.319,3.315,100,0,0,0,221.8,18.66,18.67
"2022-09-07 01:43:00",3102987,3.316,345.3965,4.94747,0.3742335,4.3,0,2.432667,349.5298,6.579371,0.4189107,3.53,0,-999,0,16.31,94.5,16.43,16.38,0.2,0,0,17.34,13.24,0.2,101.3455,3.319,3.319,3.316,100,0,0,0,221.8,18.67,18.67
"2022-09-07 01:44:00",3102988,3.777333,348.4089,5.1167,0.4468179,4.8,0,2.46,346.3879,6.325404,0.4398182,3.25,0,-999,0,16.3,94.8,16.43,16.35,0.2,0,0,17.34,13.26,0.2,101.3481,3.319,3.32,3.317,100,0,0,0,221.8,18.67,18.67
"2022-09-07 01:45:00",3102989,3.69,346.4669,2.871402,0.3034688,4.2,0,2.782667,345.2666,6.812522,0.3127612,3.27,0,-999,0,16.3,94.9,16.41,16.32,0.2,0,0,17.33,13.25,0.2,101.3479,3.318,3.319,3.316,100,0,0,0,221.8,18.67,18.67
"2022-09-07 01:46:00",3102990,3.232,343.8636,4.270911,0.3163374,4,0,2.58,339.1922,6.771671,0.4258638,3.23,0,-999,0,16.29,95,16.4,16.3,0.2,0,0,17.31,13.22,0.2,101.3507,3.315,3.317,3.315,100,0,0,0,221.8,18.66,18.67